LU9DA-WX Weather Reports


time (UTC)temp
C
wind
direction
speed
KPH
gust
KPH
rain 1hr
cm
rain 24hr
cm
rain mn
cm
humidity
%
barometer
mb
20260508154614 16 270 8.0 24.1 0.00 0.00 0.00
20260508154015 16 225 12.9 22.5 0.00 0.00 0.00
20260508153414 16 270 3.2 22.5 0.00 0.00 0.00
20260508152815 15 225 8.0 22.5 0.00 0.00 0.00
20260508152214 16 180 3.2 22.5 0.00 0.00 0.00
20260508151615 16 225 3.2 17.7 0.00 0.00 0.00
20260508150414 15 315 4.8 17.7 0.00 0.00 0.00
20260508145813 15 225 3.2 20.9 0.00 0.00 0.00
20260508145213 14 270 9.7 20.9 0.00 0.00 0.00
20260508144613 15 225 9.7 20.9 0.00 0.00 0.00
20260508143414 15 225 4.8 20.9 0.00 0.00 0.00
20260508142814 15 225 3.2 11.3 0.00 0.00 0.00
20260508142213 14 225 1.6 17.7 0.00 0.00 0.00
20260508141613 14 270 3.2 17.7 0.00 0.00 0.00
20260508140514 14 270 1.6 19.3 0.00 0.00 0.00
20260508135914 14 225 8.0 19.3 0.00 0.00 0.00
20260508135314 14 180 3.2 17.7 0.00 0.00 0.00
20260508134713 14 135 3.2 12.9 0.00 0.00 0.00
20260508134113 14 225 4.8 12.9 0.00 0.00 0.00
20260508133513 14 225 8.0 19.3 0.00 0.00 0.00
20260508132913 14 270 3.2 20.9 0.00 0.00 0.00
20260508131614 14 270 4.8 20.9 0.00 0.00 0.00
20260508130418 13 225 8.0 22.5 0.00 0.00 0.00
20260508125819 13 270 4.8 22.5 0.00 0.00 0.00
20260508125218 13 225 4.8 14.5 0.00 0.00 0.00
20260508124619 12 315 3.2 14.5 0.00 0.00 0.00
20260508124018 12 270 8.0 14.5 0.00 0.00 0.00
20260508123418 12 225 8.0 14.5 0.00 0.00 0.00
20260508122817 12 225 4.8 16.1 0.00 0.00 0.00
20260508122217 12 180 1.6 14.5 0.00 0.00 0.00
20260508121615 12 225 3.2 16.1 0.00 0.00 0.00
20260508120513 12 270 1.6 14.5 0.00 0.00 0.00
20260508115913 12 225 4.8 14.5 0.00 0.00 0.00
20260508115314 12 225 4.8 14.5 0.00 0.00 0.00
20260508114713 12 225 4.8 14.5 0.00 0.00 0.00
20260508114112 12 225 11.3 14.5 0.00 0.00 0.00
20260508113513 12 180 1.6 9.7 0.00 0.00 0.00
20260508112913 12 225 3.2 11.3 0.00 0.00 0.00
20260508112314 12 225 3.2 9.7 0.00 0.00 0.00
20260508111713 12 225 4.8 9.7 0.00 0.00 0.00
20260508110513 12 225 3.2 8.0 0.00 0.00 0.00
20260508105914 12 270 1.6 8.0 0.00 0.00 0.00
20260508105313 12 270 0.0 8.0 0.00 0.00 0.00
20260508104714 12 270 1.6 8.0 0.00 0.00 0.00
20260508104113 12 270 1.6 4.8 0.00 0.00 0.00
20260508103514 12 270 1.6 4.8 0.00 0.00 0.00
20260508102913 12 270 1.6 6.4 0.00 0.00 0.00
20260508102313 12 315 3.2 8.0 0.00 0.00 0.00
20260508101713 12 270 1.6 8.0 0.00 0.00 0.00
20260508100518 12 270 1.6 9.7 0.00 0.00 0.00
20260508095918 12 225 1.6 9.7 0.00 0.00 0.00
20260508095319 12 270 3.2 11.3 0.00 0.00 0.00
20260508094718 12 270 3.2 11.3 0.00 0.00 0.00
20260508094118 12 225 3.2 8.0 0.00 0.00 0.00
20260508093517 12 315 3.2 8.0 0.00 0.00 0.00
20260508092916 12 315 1.6 9.7 0.00 0.00 0.00
20260508092314 12 270 1.6 9.7 0.00 0.00 0.00
20260508091714 12 225 3.2 9.7 0.00 0.00 0.00
20260508090516 12 270 3.2 8.0 0.00 0.00 0.00
20260508085915 12 315 1.6 9.7 0.00 0.00 0.00
20260508085315 12 315 3.2 9.7 0.00 0.00 0.00
20260508084716 12 270 4.8 6.4 0.00 0.00 0.00
20260508084115 12 315 1.6 6.4 0.00 0.00 0.00
20260508083515 12 270 4.8 6.4 0.00 0.00 0.00
20260508082914 12 270 3.2 6.4 0.00 0.00 0.00
20260508082315 12 270 3.2 6.4 0.00 0.00 0.00
20260508081714 12 270 1.6 6.4 0.00 0.00 0.00
20260508080415 12 270 1.6 8.0 0.00 0.00 0.00
20260508075816 12 315 1.6 8.0 0.00 0.00 0.00
20260508075215 12 270 1.6 8.0 0.00 0.00 0.00
20260508074615 12 270 1.6 9.7 0.00 0.00 0.00
20260508074015 12 270 6.4 9.7 0.00 0.00 0.00
20260508073415 12 270 8.0 8.0 0.00 0.00 0.00
20260508072815 12 270 1.6 8.0 0.00 0.00 0.00
20260508072214 12 270 3.2 6.4 0.00 0.00 0.00
20260508071613 12 270 3.2 9.7 0.00 0.00 0.00
20260508070514 12 315 3.2 8.0 0.00 0.00 0.00
20260508065913 12 270 3.2 9.7 0.00 0.00 0.00
20260508065314 12 270 0.0 9.7 0.00 0.00 0.00
20260508064713 12 270 1.6 11.3 0.00 0.00 0.00
20260508064113 12 315 1.6 11.3 0.00 0.00 0.00
20260508063513 12 315 3.2 8.0 0.00 0.00 0.00
20260508062913 12 315 1.6 9.7 0.00 0.00 0.00
20260508062314 12 270 3.2 9.7 0.00 0.00 0.00
20260508061713 12 270 3.2 9.7 0.00 0.00 0.00
20260508060414 12 225 4.8 16.1 0.00 0.00 0.00
20260508055815 12 270 3.2 16.1 0.00 0.00 0.00
20260508055214 12 270 3.2 11.3 0.00 0.00 0.00
20260508054614 12 270 4.8 16.1 0.00 0.00 0.00
20260508054014 12 315 3.2 16.1 0.00 0.00 0.00
20260508053414 12 315 1.6 17.7 0.00 0.00 0.00
20260508052813 12 225 1.6 11.3 0.00 0.00 0.00
20260508052213 12 315 0.0 11.3 0.00 0.00 0.00
20260508051614 12 315 3.2 11.3 0.00 0.00 0.00
20260508050014 12 45 3.2 16.1 0.00 0.00 0.00
20260508045415 12 270 1.6 17.7 0.00 0.00 0.00
20260508044814 13 225 4.8 16.1 0.00 0.00 0.00
20260508044214 13 270 3.2 8.0 0.00 0.00 0.00
20260508043615 13 225 1.6 4.8 0.00 0.00 0.00
20260508043014 13 270 3.2 4.8 0.00 0.00 0.00
20260508041714 13 225 1.6 4.8 0.00 0.00 0.00
20260508040514 13 225 0.0 4.8 0.00 0.00 0.00
20260508035915 13 225 1.6 4.8 0.00 0.00 0.00
20260508035315 13 225 0.0 4.8 0.00 0.00 0.00
20260508034714 13 225 1.6 4.8 0.00 0.00 0.00
20260508034115 13 225 0.0 4.8 0.00 0.00 0.00
20260508033514 13 270 1.6 8.0 0.00 0.00 0.00
20260508032915 13 270 1.6 8.0 0.00 0.00 0.00
20260508032314 13 225 1.6 6.4 0.00 0.00 0.00
20260508031714 13 270 3.2 4.8 0.00 0.00 0.00
20260508030519 13 270 0.0 4.8 0.00 0.00 0.00
20260508025918 13 180 0.0 4.8 0.00 0.00 0.00
20260508025318 13 270 0.0 4.8 0.00 0.00 0.00
20260508024714 13 225 0.0 8.0 0.00 0.00 0.00
20260508024114 13 225 0.0 4.8 0.00 0.00 0.00
20260508023513 13 225 0.0 8.0 0.00 0.00 0.00
20260508022913 13 270 0.0 8.0 0.00 0.00 0.00
20260508022314 13 270 4.8 8.0 0.00 0.00 0.00
20260508021713 13 270 1.6 8.0 0.00 0.00 0.00
20260508020614 13 180 1.6 14.5 0.00 0.00 0.00
20260508020014 13 270 1.6 14.5 0.00 0.00 0.00
20260508015414 13 270 3.2 8.0 0.00 0.00 0.00
20260508014814 13 270 3.2 8.0 0.00 0.00 0.00
20260508013513 13 225 3.2 9.7 0.00 0.00 0.00
20260508012914 13 270 3.2 8.0 0.00 0.00 0.00
20260508012313 13 225 3.2 8.0 0.00 0.00 0.00
20260508011714 13 225 3.2 8.0 0.00 0.00 0.00
20260508010516 13 270 1.6 8.0 0.00 0.00 0.00
20260508005916 13 180 0.0 4.8 0.00 0.00 0.00
20260508005315 13 270 3.2 4.8 0.00 0.00 0.00
20260508004715 13 315 0.0 8.0 0.00 0.00 0.00
20260508004114 13 270 3.2 6.4 0.00 0.00 0.00
20260508003514 13 270 1.6 9.7 0.00 0.00 0.00
20260508002913 13 315 3.2 9.7 0.00 0.00 0.00
20260508002314 13 225 0.0 9.7 0.00 0.00 0.00
20260508001713 13 270 1.6 9.7 0.00 0.00 0.00
20260508000413 13 270 1.6 4.8 0.00 0.00 0.00
20260507235813 13 225 1.6 4.8 0.00 0.00 0.00
20260507235213 13 270 1.6 4.8 0.00 0.00 0.00
20260507234612 13 270 1.6 8.0 0.00 0.00 0.00
20260507234013 13 225 3.2 8.0 0.00 0.00 0.00
20260507233413 13 270 3.2 8.0 0.00 0.00 0.00
20260507232813 13 270 1.6 8.0 0.00 0.00 0.00
20260507232213 13 225 3.2 8.0 0.00 0.00 0.00
20260507231614 13 180 0.0 8.0 0.00 0.00 0.00
20260507230515 13 270 1.6 9.7 0.00 0.00 0.00
20260507225914 13 270 1.6 11.3 0.00 0.00 0.00
20260507225314 13 225 1.6 8.0 0.00 0.00 0.00
20260507224715 13 180 0.0 6.4 0.00 0.00 0.00
20260507224114 13 270 1.6 9.7 0.00 0.00 0.00
20260507223513 13 135 0.0 9.7 0.00 0.00 0.00
20260507222913 14 270 0.0 11.3 0.00 0.00 0.00
20260507222314 14 270 3.2 12.9 0.00 0.00 0.00
20260507221713 14 135 1.6 16.1 0.00 0.00 0.00
20260507220517 14 225 4.8 11.3 0.00 0.00 0.00
20260507215916 14 225 4.8 14.5 0.00 0.00 0.00
20260507215315 14 270 3.2 14.5 0.00 0.00 0.00
20260507214714 14 225 1.6 11.3 0.00 0.00 0.00
20260507214115 14 225 4.8 11.3 0.00 0.00 0.00
20260507213514 14 225 1.6 11.3 0.00 0.00 0.00
20260507212915 14 225 1.6 12.9 0.00 0.00 0.00
20260507212314 14 225 1.6 8.0 0.00 0.00 0.00
20260507211714 14 270 1.6 9.7 0.00 0.00 0.00
20260507210516 14 225 3.2 14.5 0.00 0.00 0.00
20260507205917 14 270 3.2 12.9 0.00 0.00 0.00
20260507205316 14 225 4.8 12.9 0.00 0.00 0.00
20260507204716 15 270 9.7 12.9 0.00 0.00 0.00
20260507204116 15 225 4.8 14.5 0.00 0.00 0.00
20260507203515 15 225 4.8 14.5 0.00 0.00 0.00
20260507202915 15 180 3.2 14.5 0.00 0.00 0.00
20260507202314 15 270 4.8 16.1 0.00 0.00 0.00
20260507201715 15 225 1.6 16.1 0.00 0.00 0.00
20260507200418 15 225 4.8 14.5 0.00 0.00 0.00
20260507195817 15 225 3.2 14.5 0.00 0.00 0.00
20260507195217 15 360 1.6 11.3 0.00 0.00 0.00
20260507194616 15 270 6.4 11.3 0.00 0.00 0.00
20260507194016 15 225 1.6 11.3 0.00 0.00 0.00
20260507193416 15 225 3.2 11.3 0.00 0.00 0.00
20260507192815 15 270 1.6 11.3 0.00 0.00 0.00
20260507192215 15 45 0.0 20.9 0.00 0.00 0.00
20260507191615 16 180 3.2 16.1 0.00 0.00 0.00
20260507190416 16 225 4.8 16.1 0.00 0.00 0.00
20260507185814 16 225 0.0 14.5 0.00 0.00 0.00
20260507185215 16 225 11.3 14.5 0.00 0.00 0.00
20260507184615 16 225 4.8 14.5 0.00 0.00 0.00
20260507184015 16 135 1.6 11.3 0.00 0.00 0.00
20260507183414 16 270 8.0 14.5 0.00 0.00 0.00
20260507182814 16 180 3.2 14.5 0.00 0.00 0.00
20260507182213 16 270 1.6 17.7 0.00 0.00 0.00
20260507181612 17 225 6.4 17.7 0.00 0.00 0.00
20260507180415 17 225 11.3 14.5 0.00 0.00 0.00
20260507175815 17 270 9.7 14.5 0.00 0.00 0.00
20260507175215 16 270 4.8 14.5 0.00 0.00 0.00
20260507174616 16 180 3.2 14.5 0.00 0.00 0.00
20260507174015 16 270 11.3 14.5 0.00 0.00 0.00
20260507173415 16 270 3.2 11.3 0.00 0.00 0.00
20260507172814 16 180 1.6 16.1 0.00 0.00 0.00
20260507172214 16 225 8.0 16.1 0.00 0.00 0.00
20260507171614 16 270 3.2 14.5 0.00 0.00 0.00
20260507170517 16 180 3.2 11.3 0.00 0.00 0.00
20260507165920 16 270 6.4 11.3 0.00 0.00 0.00
20260507165317 16 225 1.6 11.3 0.00 0.00 0.00
20260507164717 16 315 1.6 11.3 0.00 0.00 0.00
20260507164116 16 225 3.2 11.3 0.00 0.00 0.00
20260507163517 16 270 1.6 9.7 0.00 0.00 0.00
20260507162916 16 270 1.6 4.8 0.00 0.00 0.00
20260507162314 16 135 0.0 8.0 0.00 0.00 0.00
20260507161713 16 180 0.0 8.0 0.00 0.00 0.00
20260507160415 16 270 3.2 9.7 0.00 0.00 0.00
20260507155815 16 270 0.0 4.8 0.00 0.00 0.00
20260507155214 16 225 1.6 8.0 0.00 0.00 0.00